Wind_Speed
45 46 46 46 46 46 46 45 45 45 44 44 43 43 43 42 41 40 40 40 40 40 40 40 39 39 38 38 38 37 37 37 36 35 33 32 30 29 28 28 28 28 29 29 30 30 30 29 28 27 25 23 22 21 20 19 18 17 16 14 13 12 12 12 12 11 11 11 12
45 45 46 46 46 46 45 45 44 44 44 43 43 43 42 42 41 40 40 39 39 39 39 39 39 39 38 38 38 38 37 37 37 36 34 33 31 30 29 29 29 29 29 29 30 30 30 30 29 28 26 25 24 23 21 20 19 18 16 15 14 13 12 12 12 11 11 11 11
44 45 45 45 45 45 44 44 44 44 43 43 43 42 42 41 40 40 39 39 38 38 38 39 38 38 38 38 37 37 37 37 37 36 35 33 32 31 31 30 29 29 29 29 30 30 30 30 29 29 28 27 25 24 22 21 20 19 17 16 14 13 13 12 11 11 10 10 11
43 44 44 44 44 44 44 44 43 43 43 43 42 42 41 40 40 39 38 38 38 38 38 38 37 37 37 37 37 37 37 37 37 36 35 34 33 32 32 31 30 30 30 29 29 29 29 30 29 29 28 27 26 24 23 21 20 19 18 16 15 14 13 12 11 10 9 9 10
43 43 44 44 44 43 43 43 42 42 42 42 42 41 41 40 39 38 38 37 37 37 37 36 36 35 35 35 36 36 37 37 37 37 36 35 34 33 32 31 31 30 30 29 29 29 29 29 29 29 29 28 26 24 23 21 20 19 18 17 15 14 13 12 10 9 9 9 9
41 42 43 43 42 42 42 41 41 41 41 41 41 41 41 40 39 38 38 37 37 36 35 35 34 34 33 34 34 35 36 37 37 37 36 36 35 34 33 32 31 31 30 29 29 28 28 29 29 29 29 28 27 25 23 22 21 20 19 17 16 14 12 11 10 9 8 8 9
40 41 41 41 41 41 40 40 40 40 40 41 41 40 40 39 38 38 37 36 36 35 34 33 33 32 32 32 33 34 35 36 37 37 37 37 36 35 34 33 32 31 31 30 29 28 28 29 29 30 29 28 27 26 24 23 22 20 19 17 16 14 12 10 9 7 7 7 9
38 39 39 40 40 40 39 39 39 40 40 40 40 39 39 38 37 36 36 35 35 34 33 32 31 31 30 30 31 32 34 35 36 37 37 37 37 36 35 33 33 32 31 30 29 29 29 29 29 30 29 29 28 27 25 24 22 20 18 17 15 13 11 9 8 6 6 7 9
37 37 38 38 38 38 38 39 39 39 39 39 38 38 37 36 35 35 35 34 34 33 32 31 30 29 29 29 29 30 32 33 35 36 36 37 37 37 36 34 34 33 32 31 30 30 29 29 30 30 30 29 28 27 26 24 22 20 18 16 14 12 10 8 6 5 6 8 9
35 35 36 36 37 37 37 37 38 38 38 37 37 36 35 34 34 34 33 33 32 32 31 30 29 28 28 28 28 29 30 32 33 34 35 36 36 37 36 35 34 34 33 33 32 31 30 30 30 30 30 29 28 27 25 23 21 19 17 15 13 11 8 7 6 6 7 8 10
33 33 34 34 35 35 36 36 37 37 36 36 35 34 34 33 33 32 32 31 31 31 30 29 29 28 28 27 27 27 28 30 31 32 34 34 35 36 36 35 35 34 34 34 33 32 31 31 30 30 30 29 28 27 25 22 20 18 15 13 11 9 7 7 7 7 8 9 11
31 31 32 32 33 34 34 35 35 35 35 35 34 33 33 32 31 31 31 31 31 30 30 29 28 28 27 27 27 27 28 29 30 30 32 33 33 34 35 35 34 34 34 34 33 33 32 31 31 30 30 29 28 27 24 22 19 17 15 12 10 9 9 9 9 9 9 11 13
29 29 30 31 32 33 33 34 34 34 34 34 33 32 32 31 30 30 30 30 30 29 29 28 28 27 27 27 27 27 28 28 28 29 30 31 31 32 33 34 33 33 33 33 33 33 33 32 31 30 30 29 28 27 24 22 19 17 14 13 11 10 10 10 10 10 11 13 14
28 28 29 30 31 32 32 33 33 33 33 33 32 31 30 30 29 29 29 29 29 28 28 28 27 27 27 26 27 27 27 27 28 28 28 29 30 31 32 32 32 32 32 32 33 33 33 32 31 30 29 29 28 26 24 22 19 16 15 13 12 12 12 11 11 12 13 14 13
27 28 29 29 30 31 32 32 33 33 32 32 31 30 29 29 28 28 28 28 27 27 27 27 26 26 26 26 26 27 27 27 27 28 28 29 29 30 30 31 31 31 31 32 33 33 32 31 30 30 29 28 27 25 23 21 19 17 15 14 13 13 12 12 12 14 14 12 10
27 28 28 29 30 31 31 32 32 32 31 31 30 29 29 28 27 27 27 27 26 26 26 26 25 25 25 25 25 26 26 27 27 28 28 28 28 29 29 30 30 30 31 31 32 32 32 31 30 29 28 27 26 24 22 20 19 17 16 14 13 12 12 12 13 13 11 9 8
27 28 28 29 30 30 31 31 31 31 30 30 29 29 28 27 27 26 26 26 25 25 25 24 24 24 24 24 24 25 26 26 27 27 28 28 28 28 28 29 29 29 30 31 31 32 31 30 29 28 27 26 25 23 22 20 18 17 15 13 12 11 12 12 11 10 8 7 6
27 28 28 29 30 30 30 30 30 30 30 29 29 28 27 26 26 26 25 24 24 24 23 23 23 23 23 24 24 24 25 26 26 27 27 27 27 27 27 27 28 28 28 29 31 31 30 29 28 27 26 25 24 22 21 19 17 15 13 12 11 11 10 10 8 7 7 6 6
27 28 28 29 29 30 30 30 30 30 29 29 28 27 27 26 26 25 25 24 23 22 22 22 22 22 22 23 23 24 24 25 25 26 26 26 26 26 26 26 26 26 26 28 29 29 29 28 27 26 25 24 22 21 19 18 15 13 12 11 10 9 9 8 7 7 7 7 7
26 27 28 28 29 29 29 29 29 29 29 28 28 27 26 26 25 25 24 24 22 22 21 21 21 21 22 22 23 23 24 24 25 25 25 25 24 24 24 23 23 23 24 25 26 27 27 26 26 25 24 22 21 19 18 16 14 12 10 9 8 8 8 8 7 7 8 8 9
25 26 26 27 28 28 28 28 28 28 28 28 27 27 26 26 25 25 24 23 22 21 21 21 21 21 21 21 22 22 23 24 24 24 24 24 23 22 22 21 21 21 21 22 24 25 25 26 25 24 22 20 19 18 17 15 13 11 9 8 8 8 8 8 8 8 8 9 9
23 23 24 25 26 26 27 27 28 28 27 27 27 26 26 25 25 24 23 23 22 22 21 21 21 20 20 21 21 21 22 23 23 24 24 23 22 21 20 19 19 19 20 21 23 24 25 26 25 23 21 20 19 18 16 14 12 10 8 8 7 7 8 8 8 9 9 10 11
20 21 22 23 24 25 25 26 26 26 26 26 26 26 26 25 25 24 23 23 22 22 21 21 20 20 20 20 20 21 21 22 23 23 23 22 21 19 18 18 19 19 20 21 23 24 25 25 24 22 21 20 19 18 16 14 11 9 8 7 7 7 8 8 9 10 10 11 12
19 19 20 21 22 23 24 25 25 25 25 26 26 25 25 25 24 24 24 23 22 22 21 20 20 20 19 19 20 20 21 22 22 22 22 21 19 18 18 18 19 20 21 21 22 23 24 24 23 22 21 20 20 18 16 14 11 9 8 7 7 8 8 9 10 11 12 12 13
18 19 20 21 22 22 23 24 24 24 25 25 25 25 25 25 24 24 23 23 22 21 20 20 20 19 19 19 19 20 21 21 22 21 20 19 18 18 18 19 20 20 21 21 22 22 23 22 21 21 21 20 20 18 16 14 11 9 8 8 8 8 9 10 11 11 12 13 14
17 18 19 20 21 22 23 23 23 24 24 24 24 24 24 24 24 23 23 22 21 21 20 20 19 19 19 19 19 20 20 21 21 20 19 18 17 18 18 19 20 20 20 21 21 22 22 21 20 20 20 20 19 18 16 13 11 9 8 8 8 9 10 11 11 12 13 14 15
16 17 19 19 21 21 22 22 23 23 23 23 23 23 23 23 23 22 22 21 20 20 20 19 19 19 19 19 20 20 20 20 20 20 19 18 17 17 18 19 19 19 20 21 22 22 22 21 20 20 20 19 19 17 15 12 10 8 8 8 8 9 10 11 12 13 14 15 16
15 16 17 18 19 20 21 21 22 22 22 22 22 22 22 21 21 21 21 20 20 20 20 19 19 19 19 20 20 20 20 20 20 19 18 18 17 17 17 17 18 19 20 21 22 22 21 20 20 20 20 19 18 16 13 11 9 8 8 8 9 10 11 12 13 13 14 15 17
13 14 15 16 17 18 19 19 20 20 20 20 20 21 21 21 20 20 20 20 20 20 20 19 19 19 19 19 19 19 19 20 19 19 18 17 17 16 16 16 17 19 20 21 22 21 20 20 20 20 19 18 16 14 12 10 9 9 9 9 10 11 12 13 14 15 16 17 18
12 13 14 15 15 16 17 18 18 18 19 19 19 20 20 20 20 20 20 20 20 20 19 19 19 19 19 19 18 18 19 19 19 18 17 17 16 16 15 16 18 19 21 21 21 20 20 20 20 19 18 16 15 13 11 10 9 9 9 10 11 12 13 14 15 16 17 18 19
11 12 12 13 14 15 15 16 16 17 17 18 18 19 19 19 20 20 20 19 19 19 19 19 19 19 18 18 18 18 18 18 18 17 16 16 15 15 16 17 19 20 20 20 20 19 19 19 19 18 17 15 13 12 11 10 9 10 10 11 12 13 14 16 17 18 19 20 20
10 10 11 12 12 13 13 14 15 16 17 17 18 18 18 18 18 18 18 18 18 18 18 18 18 18 17 17 16 17 17 17 16 15 15 15 15 16 17 18 19 20 20 19 19 19 19 19 18 17 15 13 12 11 10 10 10 11 12 13 14 16 17 18 19 20 20 20 20
9 9 10 11 11 12 12 13 14 15 16 16 17 17 17 17 17 17 17 17 17 17 17 17 16 16 16 15 15 15 15 15 15 14 14 14 15 17 18 19 19 19 19 19 19 19 19 18 16 15 13 12 11 10 10 10 11 13 14 15 17 18 19 20 20 20 20 19 20
8 8 9 9 10 11 11 12 13 14 14 15 15 16 16 16 16 16 16 16 16 16 16 15 15 14 14 14 14 14 14 14 13 13 14 15 17 18 19 19 19 19 19 19 19 19 18 17 15 13 12 11 11 11 11 12 13 15 16 18 19 20 21 21 20 20 19 20 21
7 7 8 9 9 10 10 11 12 12 13 14 14 14 14 14 14 14 14 14 14 15 14 14 14 14 13 13 14 14 13 13 13 14 15 16 18 19 19 19 19 19 19 19 20 19 18 16 14 13 12 11 11 12 13 15 16 18 19 21 21 22 21 21 20 20 20 22 23
6 6 7 8 8 9 9 10 10 11 11 12 12 12 12 12 12 13 13 13 13 14 13 13 13 13 13 13 13 13 13 12 13 14 16 18 19 19 19 19 19 19 20 20 20 19 17 15 14 13 12 12 12 13 15 18 19 21 22 23 23 22 21 20 20 21 22 23 25
5 5 6 7 7 8 8 8 9 9 9 9 9 9 10 10 10 11 12 12 12 12 12 12 12 12 12 12 12 12 12 12 13 15 17 18 19 19 19 19 19 20 20 21 20 19 17 15 14 13 12 12 13 15 18 20 22 23 23 23 22 22 21 21 21 23 24 25 25
5 5 5 6 6 6 7 7 7 7 7 7 7 7 8 9 9 10 10 11 11 11 10 11 11 11 11 11 11 11 12 13 14 16 17 19 19 19 19 18 19 20 20 21 20 19 17 16 14 14 13 14 15 17 20 22 23 23 23 22 22 21 21 22 23 24 25 25 25
4 4 5 5 5 5 5 5 5 5 5 6 6 6 7 7 8 8 9 9 9 9 9 9 9 9 9 10 10 11 12 13 15 16 18 18 19 18 18 18 19 19 20 20 20 19 18 16 15 15 15 16 17 20 21 22 23 22 22 22 22 22 23 23 24 25 25 25 25
4 4 4 4 5 5 5 4 4 4 5 5 5 6 6 6 7 7 8 8 8 8 8 8 9 9 9 10 10 11 13 14 16 17 18 18 18 18 18 18 18 18 19 20 20 19 18 17 16 16 16 18 20 21 22 22 22 21 22 22 23 24 24 25 25 25 25 25 24
3 3 3 4 4 4 4 4 4 4 4 5 5 5 6 6 7 7 7 7 8 8 8 9 9 9 10 10 11 12 13 15 16 17 18 18 18 18 17 17 17 18 18 19 19 19 18 17 17 17 18 19 21 21 21 21 21 22 22 23 24 25 26 26 26 26 25 25 24
Wind_Direction
225 226 227 229 230 231 233 235 236 238 240 241 242 242 243 243 243 243 244 243 242 241 241 241 242 243 243 242 241 239 238 237 237 238 239 239 239 239 239 239 238 237 234 233 232 231 232 233 233 234 235 237 239 243 248 252 256 260 264 268 273 279 285 289 292 297 303 312 318
225 227 228 229 231 232 234 235 237 239 241 242 243 244 245 245 245 245 246 245 245 244 243 243 244 245 245 245 244 243 241 241 240 240 240 240 240 240 240 239 240 239 237 235 234 233 233 234 234 235 236 237 239 242 246 250 255 259 262 266 271 277 282 286 288 293 301 309 316
226 227 228 230 231 233 234 236 238 240 241 243 244 244 245 246 247 247 248 248 247 247 246 245 246 247 248 248 248 246 245 244 243 242 242 241 241 240 239 239 240 240 239 237 236 235 235 235 235 236 237 238 240 242 245 249 253 257 261 264 269 274 279 282 285 291 299 307 313
226 227 229 230 232 233 235 237 239 241 242 244 244 245 245 246 247 248 249 250 249 248 248 248 249 250 251 251 250 248 247 246 245 243 243 242 241 240 239 239 240 240 240 239 238 237 237 237 237 238 238 239 240 242 244 247 251 254 258 261 266 271 275 278 282 288 296 304 311
227 228 230 231 233 235 237 239 241 242 244 245 245 245 246 247 248 249 250 250 250 251 251 252 252 253 253 252 251 250 248 247 245 244 243 242 241 240 239 239 239 240 241 240 239 239 238 238 238 238 239 240 240 241 243 245 248 252 255 258 263 268 272 275 279 285 294 303 313
227 229 231 233 235 236 238 240 242 243 245 245 246 246 247 248 249 250 251 252 253 254 254 254 253 254 254 253 252 251 249 247 246 244 243 242 242 240 239 238 239 240 241 241 240 240 239 239 239 239 239 239 239 240 241 243 246 248 252 255 260 265 269 272 276 283 294 308 320
230 230 232 234 235 237 239 241 242 244 245 246 247 248 249 251 252 253 254 255 256 256 255 254 254 254 254 253 252 251 250 248 246 245 244 243 242 240 239 238 239 239 240 241 241 240 239 239 239 239 239 239 239 240 241 242 244 246 249 253 258 262 266 268 272 282 298 318 328
232 233 234 235 237 238 240 241 243 244 245 247 248 250 252 253 254 256 257 257 257 257 256 256 255 255 255 254 254 252 251 249 247 246 245 244 243 241 240 238 238 239 240 240 240 240 239 239 239 239 239 239 239 239 240 241 242 243 246 250 255 259 262 263 270 285 308 326 331
232 233 235 236 238 239 241 242 244 245 247 248 250 252 253 254 256 256 257 258 258 259 258 258 257 256 256 255 255 254 252 250 248 247 246 245 244 242 240 239 238 238 239 239 238 238 238 239 239 239 239 239 239 239 240 240 240 241 244 248 252 255 256 259 271 294 316 326 327
232 233 235 236 238 240 241 243 245 246 248 250 251 253 254 255 256 257 258 259 260 260 259 259 258 257 256 256 255 254 253 251 250 248 247 246 245 243 242 240 239 239 239 238 237 236 235 236 238 239 239 238 238 238 238 239 238 240 242 246 248 248 250 261 281 302 315 320 319
232 233 235 236 238 240 241 243 245 247 248 250 251 253 254 255 256 258 259 260 260 260 260 260 259 258 257 256 256 255 253 251 250 249 247 246 245 244 243 242 241 240 240 239 237 235 234 235 236 238 238 238 238 238 238 238 238 240 242 243 241 242 251 271 287 299 307 311 311
232 234 235 237 238 240 241 243 244 246 248 249 251 252 254 255 257 258 259 259 260 260 261 261 260 259 258 257 256 255 253 251 250 248 247 246 246 245 244 243 242 242 242 241 239 237 235 234 236 237 239 239 239 239 238 239 239 240 240 238 238 246 261 276 285 292 300 305 306
232 234 235 237 238 240 241 243 244 246 247 249 250 252 254 255 257 258 258 259 260 261 261 261 261 260 259 258 256 255 253 251 250 248 247 246 245 244 244 243 243 243 243 243 242 239 237 235 235 237 238 239 239 239 239 240 240 239 238 237 244 257 268 276 281 290 298 303 302
232 233 234 236 237 239 241 242 244 246 247 249 251 252 254 255 256 257 259 260 261 261 262 262 261 260 259 258 257 255 254 252 251 249 247 246 245 244 243 243 243 243 243 243 243 241 239 236 235 236 238 239 239 239 240 239 239 237 238 242 252 262 269 275 282 291 298 300 297
232 233 235 236 237 239 240 242 244 246 247 249 251 253 254 255 256 257 258 259 260 261 261 262 261 260 259 258 257 256 255 254 252 250 249 247 245 244 243 242 242 242 242 242 242 242 240 238 236 236 237 238 239 239 239 238 237 237 240 248 256 263 270 277 287 294 296 294 286
232 233 234 236 237 239 240 242 244 246 247 249 251 253 254 255 256 257 258 258 259 260 260 260 260 259 258 257 256 255 255 254 253 251 249 247 245 243 242 242 242 241 241 241 241 240 239 237 236 236 236 238 239 239 238 237 237 238 242 248 254 263 273 283 291 293 289 280 277
233 234 235 236 237 239 241 243 245 246 248 250 252 253 254 255 256 256 257 257 258 258 259 260 259 258 256 255 254 253 253 253 252 251 249 247 245 243 242 241 241 241 241 241 241 240 238 236 234 233 234 236 237 237 237 236 236 237 239 243 252 266 278 287 289 283 273 269 281
233 235 236 238 239 240 242 244 246 248 249 251 253 254 255 255 255 256 256 257 257 258 259 260 259 257 255 253 252 251 251 251 251 249 247 245 243 242 241 241 241 241 242 242 242 240 238 234 232 232 232 234 235 235 234 233 233 233 236 242 255 269 278 280 272 263 260 273 289
235 236 238 239 240 242 244 246 248 249 251 253 254 255 255 255 255 255 256 256 257 259 260 260 258 257 255 253 251 249 248 248 248 248 246 245 243 243 243 243 244 244 245 245 244 242 238 234 232 231 232 233 234 233 231 228 226 227 232 243 255 263 264 257 250 252 262 277 288
236 238 239 241 242 244 245 247 249 250 252 254 254 255 255 255 255 255 256 257 258 259 260 259 258 256 254 252 250 248 247 246 246 246 246 245 245 245 246 248 249 250 250 249 246 242 237 232 231 231 232 233 233 231 226 221 218 220 226 235 243 244 240 238 243 254 266 276 284
237 239 240 242 243 245 246 247 249 250 252 252 253 253 254 254 255 255 257 258 259 260 260 259 258 256 254 251 249 247 246 246 246 246 246 246 247 248 251 253 255 254 253 250 246 241 235 230 229 229 231 232 230 225 218 213 212 214 219 224 226 228 231 238 248 259 268 276 284
236 238 240 241 243 244 246 247 248 249 250 251 252 252 253 254 255 256 257 258 259 259 259 259 258 256 254 252 250 248 247 247 247 246 246 247 248 251 254 255 255 253 249 245 241 236 231 228 226 227 228 228 223 218 212 210 211 214 218 221 223 227 235 246 255 262 270 278 284
236 238 239 241 242 244 245 246 247 248 249 250 251 252 253 254 255 256 257 258 259 259 259 258 257 256 255 253 252 250 249 248 248 247 248 249 250 253 254 254 252 249 244 240 235 230 227 224 223 224 224 222 217 212 211 212 216 221 224 227 231 237 246 254 261 267 273 279 284
238 239 240 241 242 243 245 246 247 248 249 250 251 252 253 255 256 256 257 258 259 259 259 258 257 255 254 253 252 250 250 249 249 249 250 251 252 253 253 251 248 245 240 235 229 225 222 220 220 220 219 216 212 211 212 216 222 228 234 238 247 252 255 260 265 270 275 280 284
239 239 240 242 243 244 245 246 247 248 249 251 252 253 255 256 256 257 258 258 259 259 258 257 256 255 253 252 251 250 250 250 251 251 252 252 253 253 252 250 246 242 236 229 223 218 216 217 217 217 215 212 211 212 216 221 227 235 242 250 256 258 260 263 268 273 277 281 285
237 238 240 241 242 244 245 246 247 249 250 251 253 254 255 256 257 257 258 258 258 258 257 257 256 255 254 252 251 250 250 251 251 252 252 252 252 252 251 249 245 239 232 223 216 212 211 213 214 213 211 210 211 214 218 225 232 239 247 254 258 262 264 267 270 274 279 283 286
233 235 237 239 241 243 244 246 247 249 250 251 252 253 254 255 256 256 257 257 257 257 257 256 256 255 254 253 252 251 251 252 252 253 253 253 253 252 250 247 242 234 225 216 210 208 208 210 210 208 208 209 212 216 222 229 236 244 252 259 263 266 269 271 273 275 279 283 285
227 229 232 234 237 240 242 243 245 247 248 250 251 252 253 254 255 255 256 256 256 256 256 255 255 254 253 252 251 250 251 251 252 253 253 254 253 251 247 242 234 225 216 209 206 206 207 208 207 206 207 210 215 220 226 235 244 253 261 267 270 271 272 273 274 276 280 282 284
219 222 226 230 233 236 238 240 242 244 246 248 249 251 252 253 254 254 255 255 255 255 255 255 254 253 252 251 250 249 249 250 251 252 252 252 251 247 240 232 223 215 209 206 205 206 207 206 205 206 208 213 218 224 232 242 253 263 270 274 274 274 274 274 276 278 281 283 283
213 217 221 225 228 231 234 237 240 242 244 246 248 249 250 251 252 253 254 254 255 255 256 256 255 254 253 252 250 249 248 249 250 251 251 250 246 239 230 220 213 208 206 205 206 207 206 205 205 207 211 216 223 230 240 250 261 270 275 275 274 274 275 277 279 280 282 283 282
211 215 218 222 226 229 232 236 238 241 243 245 246 248 249 251 252 252 253 254 255 256 256 255 254 253 252 250 249 248 248 248 249 249 248 245 239 229 218 209 206 204 205 206 207 207 206 205 206 210 215 221 229 238 248 259 269 275 277 276 276 277 279 281 282 282 281 280 280
211 215 218 222 225 228 232 235 237 240 241 243 245 246 248 249 251 252 252 253 253 253 252 251 251 250 248 247 245 245 245 247 248 247 244 238 228 217 208 204 202 203 205 206 207 206 205 206 209 213 220 228 237 246 256 265 273 278 279 279 280 281 281 281 280 279 278 277 278
210 213 217 221 224 227 230 233 235 237 239 241 243 244 246 247 248 248 248 249 249 248 248 248 247 246 245 244 242 242 244 245 245 242 236 227 217 208 203 201 201 203 205 206 206 206 206 208 212 218 226 235 244 254 263 269 274 277 279 280 282 282 281 278 275 273 273 277 283
207 211 215 218 221 224 227 229 232 234 236 238 240 241 242 243 244 244 245 245 245 245 245 244 243 242 241 240 240 241 242 243 241 235 226 217 208 203 200 200 201 203 205 206 206 206 207 211 216 223 232 241 251 262 272 277 279 281 282 284 284 282 279 274 272 272 276 283 289
205 208 212 215 218 221 223 226 228 231 233 235 236 238 239 240 240 241 242 242 242 241 240 238 237 235 234 233 234 236 238 237 233 226 218 210 204 201 200 200 202 204 206 207 207 207 209 214 220 227 236 246 257 269 280 288 290 290 289 287 284 280 275 273 274 277 283 289 294
201 205 208 211 214 218 221 223 226 228 230 231 233 233 234 235 236 237 237 237 236 236 235 233 232 231 230 230 229 230 230 228 224 217 211 205 202 200 200 200 202 206 208 208 208 209 212 217 223 231 241 252 265 278 287 293 294 293 290 286 281 278 276 276 279 284 289 293 296
201 205 208 211 215 217 220 223 225 226 227 227 228 228 229 230 230 230 231 232 233 232 231 230 229 229 228 228 227 226 224 220 215 210 206 202 201 201 201 202 204 207 209 210 210 212 215 220 227 236 247 259 274 285 291 293 292 288 285 282 280 279 279 281 285 290 293 296 298
206 209 214 216 219 221 224 225 225 224 221 220 221 223 224 225 226 226 227 228 229 230 228 226 225 225 224 224 223 222 218 214 208 205 202 200 200 201 203 205 207 210 212 212 213 215 219 225 233 242 254 268 281 288 290 289 286 283 281 280 280 281 284 288 291 294 296 298 299
212 217 221 224 226 230 230 229 226 220 216 214 216 219 220 221 221 222 222 222 222 222 221 219 218 217 217 217 217 216 212 207 203 200 199 199 200 203 206 209 211 213 215 216 217 220 224 230 239 249 262 275 283 286 285 283 281 280 280 282 284 287 290 293 295 297 298 298 299
219 225 229 231 234 236 235 230 222 217 214 212 209 210 212 214 214 214 214 213 212 211 209 207 206 205 207 208 209 208 205 201 198 197 197 198 201 204 209 212 215 217 219 221 223 225 230 236 245 256 269 277 281 281 280 279 279 281 283 286 289 292 294 296 297 297 297 298 298
226 229 233 235 237 236 233 224 215 212 210 205 200 201 205 207 208 208 207 205 203 201 199 197 196 196 197 198 199 199 198 196 195 195 196 198 202 206 211 215 218 220 223 225 228 231 235 242 252 262 270 275 277 277 278 279 281 284 287 291 293 295 296 297 296 296 297 297 298
Height
1485 1486 1487 1488 1489 1490 1491 1492 1493 1494 1495 1496 1497 1498 1499 1500 1500 1502 1503 1504 1505 1505 1506 1507 1509 1510 1511 1512 1513 1514 1515 1516 1517 1518 1520 1521 1522 1523 1523 1524 1525 1525 1526 1527 1528 1528 1529 1530 1530 1530 1531 1532 1532 1532 1532 1533 1533 1533 1533 1532 1532 1532 1532 1531 1531 1530 1530 1530 1529
1484 1485 1485 1486 1488 1489 1490 1491 1492 1493 1494 1495 1496 1497 1498 1499 1500 1501 1502 1503 1504 1505 1506 1507 1508 1509 1510 1511 1512 1513 1514 1515 1516 1517 1518 1520 1520 1521 1522 1522 1523 1524 1525 1525 1526 1527 1527 1528 1528 1529 1530 1530 1530 1531 1531 1531 1531 1531 1531 1531 1531 1531 1530 1530 1530 1529 1529 1528 1528
1482 1483 1484 1485 1486 1488 1489 1490 1491 1492 1493 1494 1495 1496 1497 1498 1499 1500 1501 1502 1503 1504 1505 1506 1507 1508 1509 1510 1511 1511 1512 1513 1515 1516 1517 1518 1519 1520 1520 1521 1521 1522 1523 1524 1525 1525 1526 1526 1527 1527 1528 1529 1529 1529 1530 1530 1530 1530 1530 1530 1530 1530 1529 1529 1529 1528 1528 1527 1527
1481 1482 1483 1484 1485 1486 1488 1489 1490 1491 1492 1493 1494 1495 1496 1497 1498 1499 1500 1501 1502 1503 1504 1505 1506 1507 1508 1509 1510 1510 1511 1512 1513 1514 1515 1517 1518 1518 1519 1519 1520 1521 1521 1522 1523 1524 1525 1525 1525 1526 1526 1527 1527 1528 1528 1528 1528 1529 1528 1528 1528 1528 1528 1528 1527 1527 1527 1526 1526
1479 1480 1481 1483 1484 1485 1487 1488 1489 1490 1491 1492 1493 1494 1495 1496 1497 1498 1499 1500 1501 1502 1503 1504 1505 1506 1507 1508 1508 1509 1510 1511 1512 1513 1514 1515 1516 1516 1517 1518 1519 1519 1520 1521 1522 1522 1523 1524 1524 1525 1525 1525 1526 1526 1526 1527 1527 1527 1527 1527 1527 1527 1527 1526 1526 1526 1525 1525 1525
1478 1480 1480 1482 1483 1485 1486 1487 1488 1489 1490 1491 1492 1492 1494 1495 1496 1497 1498 1499 1500 1501 1502 1503 1504 1505 1506 1506 1507 1508 1509 1509 1510 1511 1512 1513 1514 1515 1515 1516 1517 1518 1519 1520 1520 1521 1521 1522 1522 1523 1524 1524 1525 1525 1525 1525 1525 1525 1525 1525 1525 1525 1525 1525 1525 1525 1524 1524 1524
1477 1479 1480 1481 1483 1484 1485 1486 1487 1488 1489 1490 1490 1491 1492 1494 1495 1495 1496 1497 1499 1500 1501 1502 1503 1504 1505 1505 1506 1506 1507 1508 1509 1510 1510 1511 1512 1513 1514 1515 1516 1517 1517 1518 1519 1519 1520 1520 1520 1521 1522 1522 1523 1523 1523 1523 1524 1524 1524 1524 1524 1524 1524 1524 1524 1524 1523 1523 1523
1477 1478 1479 1480 1482 1483 1484 1485 1486 1487 1487 1488 1489 1490 1491 1493 1494 1495 1495 1496 1497 1498 1500 1500 1501 1502 1503 1504 1504 1505 1505 1506 1507 1508 1509 1510 1511 1511 1512 1513 1515 1515 1516 1516 1517 1518 1518 1519 1519 1520 1520 1520 1521 1521 1522 1522 1522 1522 1522 1522 1522 1523 1523 1523 1522 1522 1522 1522 1521
1476 1477 1478 1480 1481 1482 1483 1484 1485 1485 1486 1487 1488 1489 1490 1491 1493 1494 1494 1495 1496 1497 1498 1499 1500 1501 1502 1502 1503 1503 1504 1505 1505 1506 1507 1508 1509 1510 1511 1512 1513 1514 1515 1515 1515 1516 1517 1517 1518 1518 1519 1519 1520 1520 1520 1520 1520 1521 1521 1521 1521 1521 1521 1521 1521 1521 1521 1520 1520
1475 1476 1477 1479 1480 1481 1482 1482 1483 1484 1485 1486 1487 1488 1490 1490 1491 1492 1493 1494 1495 1496 1497 1498 1499 1500 1500 1501 1501 1502 1503 1503 1504 1505 1506 1507 1507 1508 1509 1510 1511 1512 1513 1513 1514 1514 1515 1515 1516 1516 1517 1518 1518 1518 1519 1519 1519 1520 1520 1520 1520 1520 1520 1520 1520 1520 1520 1519 1520
1474 1475 1476 1477 1479 1480 1480 1481 1482 1483 1484 1485 1486 1487 1488 1489 1490 1491 1492 1493 1494 1494 1495 1496 1497 1498 1499 1500 1500 1501 1501 1502 1503 1503 1504 1505 1506 1507 1508 1509 1510 1510 1511 1512 1512 1513 1513 1514 1514 1515 1515 1516 1517 1517 1518 1518 1518 1518 1519 1519 1519 1519 1519 1519 1518 1518 1518 1518 1519
1473 1474 1475 1476 1477 1478 1479 1480 1481 1482 1483 1484 1485 1486 1487 1488 1489 1490 1491 1491 1492 1493 1494 1495 1496 1497 1498 1498 1499 1499 1500 1500 1501 1502 1503 1503 1505 1505 1506 1507 1508 1509 1509 1510 1510 1511 1511 1512 1512 1513 1514 1515 1515 1516 1516 1517 1517 1517 1517 1518 1518 1518 1518 1517 1517 1517 1517 1517 1518
1472 1474 1475 1475 1476 1477 1478 1479 1480 1480 1481 1483 1484 1485 1486 1487 1488 1489 1490 1490 1491 1492 1493 1494 1495 1495 1496 1497 1497 1498 1498 1499 1500 1500 1501 1502 1503 1504 1505 1505 1506 1507 1508 1508 1509 1509 1509 1510 1510 1511 1512 1513 1514 1515 1515 1516 1516 1516 1516 1516 1516 1516 1516 1516 1516 1516 1516 1516 1517
1471 1472 1473 1474 1475 1476 1477 1478 1479 1480 1480 1481 1482 1484 1485 1486 1487 1488 1488 1489 1490 1491 1492 1493 1494 1494 1495 1495 1496 1496 1497 1497 1498 1499 1499 1500 1501 1502 1502 1503 1504 1505 1505 1506 1506 1507 1507 1508 1509 1510 1511 1512 1513 1513 1514 1514 1515 1515 1515 1515 1515 1515 1515 1515 1515 1515 1515 1516 1516
1470 1471 1472 1473 1474 1475 1476 1477 1477 1478 1479 1480 1481 1483 1484 1485 1486 1486 1487 1488 1489 1490 1491 1491 1492 1493 1494 1494 1495 1495 1495 1496 1496 1497 1498 1498 1499 1500 1500 1501 1502 1503 1504 1504 1505 1505 1506 1507 1508 1509 1510 1510 1511 1512 1513 1513 1513 1514 1514 1514 1514 1513 1513 1513 1514 1514 1515 1515 1516
1470 1470 1471 1472 1473 1474 1475 1475 1476 1477 1478 1480 1480 1482 1483 1484 1485 1485 1486 1487 1488 1489 1490 1490 1491 1491 1492 1493 1493 1494 1494 1495 1495 1495 1496 1497 1497 1498 1499 1500 1500 1501 1502 1503 1503 1504 1505 1505 1507 1508 1509 1510 1510 1511 1511 1512 1512 1512 1512 1512 1512 1512 1512 1512 1513 1513 1514 1515 1515
1468 1469 1470 1471 1472 1473 1474 1475 1475 1477 1478 1479 1480 1481 1482 1483 1484 1485 1485 1486 1487 1487 1488 1489 1490 1490 1491 1491 1492 1492 1493 1493 1494 1494 1495 1495 1495 1496 1497 1498 1499 1499 1500 1501 1502 1502 1503 1505 1506 1507 1508 1509 1509 1510 1510 1510 1510 1511 1511 1511 1510 1511 1511 1511 1512 1513 1514 1514 1514
1467 1468 1469 1470 1471 1472 1473 1474 1475 1476 1477 1478 1479 1480 1481 1482 1482 1483 1484 1485 1486 1486 1487 1488 1488 1489 1489 1490 1490 1491 1491 1492 1492 1493 1493 1494 1494 1495 1495 1496 1497 1498 1499 1500 1500 1501 1502 1504 1505 1506 1506 1507 1508 1508 1509 1509 1509 1509 1509 1509 1509 1510 1510 1511 1511 1512 1513 1513 1512
1467 1468 1469 1469 1470 1471 1472 1473 1474 1475 1476 1477 1478 1479 1480 1481 1481 1482 1483 1484 1485 1485 1486 1486 1487 1487 1488 1489 1489 1490 1490 1490 1491 1491 1492 1492 1493 1494 1495 1495 1496 1497 1498 1499 1500 1500 1501 1503 1504 1505 1505 1506 1507 1507 1507 1507 1508 1508 1508 1508 1508 1509 1509 1510 1511 1511 1511 1511 1511
1466 1467 1468 1469 1470 1470 1471 1472 1473 1474 1475 1476 1477 1478 1479 1480 1480 1481 1482 1483 1484 1484 1485 1485 1486 1486 1487 1487 1488 1488 1489 1489 1490 1490 1491 1491 1492 1493 1494 1495 1495 1496 1497 1498 1499 1499 1500 1502 1503 1504 1504 1505 1505 1506 1506 1506 1506 1506 1506 1507 1507 1508 1509 1510 1510 1510 1510 1510 1510
1465 1466 1467 1468 1469 1470 1471 1471 1472 1473 1474 1475 1476 1477 1478 1479 1479 1480 1481 1482 1483 1483 1484 1484 1485 1485 1485 1486 1486 1487 1488 1488 1489 1489 1490 1490 1491 1492 1493 1494 1494 1495 1496 1496 1497 1498 1499 1500 1501 1502 1503 1504 1505 1505 1505 1505 1505 1505 1505 1506 1506 1507 1508 1508 1509 1509 1509 1509 1509
1464 1465 1466 1467 1468 1469 1470 1470 1471 1472 1473 1474 1475 1476 1477 1477 1478 1479 1480 1481 1481 1482 1482 1483 1483 1484 1484 1485 1485 1486 1487 1487 1488 1488 1489 1489 1490 1490 1491 1492 1493 1493 1494 1495 1495 1496 1497 1498 1500 1501 1502 1503 1503 1504 1504 1504 1504 1504 1505 1505 1505 1506 1506 1507 1507 1507 1508 1508 1508
1463 1464 1465 1466 1467 1468 1469 1470 1470 1471 1472 1473 1474 1475 1475 1476 1477 1478 1479 1480 1480 1480 1481 1482 1482 1483 1483 1484 1485 1485 1485 1486 1486 1487 1487 1488 1489 1489 1490 1490 1491 1491 1492 1493 1493 1494 1495 1496 1498 1499 1500 1501 1502 1502 1502 1503 1503 1503 1504 1504 1505 1505 1505 1506 1506 1506 1506 1506 1506
1462 1463 1464 1465 1466 1467 1467 1468 1469 1470 1471 1472 1473 1474 1474 1475 1476 1477 1477 1478 1479 1480 1480 1480 1481 1482 1482 1483 1483 1484 1484 1485 1485 1485 1486 1486 1487 1488 1488 1489 1489 1490 1490 1491 1492 1493 1494 1495 1496 1498 1499 1500 1500 1500 1501 1501 1502 1502 1502 1503 1503 1504 1504 1505 1505 1505 1505 1505 1505
1461 1462 1463 1464 1465 1465 1466 1467 1468 1469 1470 1471 1472 1472 1473 1474 1475 1475 1476 1477 1478 1478 1479 1479 1480 1480 1481 1481 1482 1483 1483 1483 1484 1484 1485 1485 1486 1486 1487 1487 1488 1488 1489 1490 1491 1492 1494 1495 1496 1497 1498 1498 1499 1499 1500 1500 1500 1501 1501 1501 1502 1502 1503 1503 1503 1503 1504 1503 1503
1460 1461 1462 1463 1464 1465 1465 1466 1467 1468 1469 1470 1470 1471 1472 1473 1474 1474 1475 1476 1476 1477 1477 1478 1479 1479 1480 1480 1481 1481 1482 1482 1483 1483 1484 1484 1485 1485 1485 1486 1486 1487 1488 1489 1490 1491 1493 1494 1495 1496 1496 1497 1497 1498 1499 1499 1499 1500 1500 1500 1501 1501 1501 1502 1502 1502 1502 1502 1502
1460 1460 1461 1462 1463 1464 1464 1465 1466 1467 1468 1469 1470 1470 1471 1472 1472 1473 1474 1475 1475 1475 1476 1477 1477 1478 1479 1479 1480 1480 1481 1481 1482 1482 1482 1483 1483 1484 1484 1485 1485 1486 1487 1488 1489 1490 1492 1493 1494 1495 1495 1496 1496 1497 1497 1498 1498 1498 1499 1499 1499 1500 1500 1500 1500 1500 1500 1500 1500
1459 1460 1460 1461 1462 1463 1464 1464 1465 1466 1467 1468 1468 1469 1470 1470 1471 1472 1473 1473 1474 1474 1475 1475 1476 1476 1477 1477 1478 1479 1480 1480 1480 1481 1481 1481 1482 1482 1483 1483 1484 1485 1486 1487 1489 1490 1491 1492 1493 1494 1495 1495 1495 1496 1496 1497 1497 1497 1497 1498 1498 1498 1499 1499 1499 1499 1499 1499 1499
1458 1459 1460 1460 1461 1462 1463 1463 1464 1465 1466 1467 1467 1468 1469 1469 1470 1470 1471 1472 1472 1473 1473 1474 1474 1475 1475 1476 1477 1477 1478 1479 1479 1480 1480 1480 1481 1481 1481 1482 1483 1484 1485 1487 1488 1489 1490 1491 1492 1493 1494 1494 1495 1495 1495 1496 1496 1496 1496 1496 1497 1497 1497 1497 1497 1497 1497 1497 1497
1458 1458 1459 1460 1460 1461 1462 1462 1463 1464 1465 1465 1466 1467 1467 1468 1469 1469 1470 1470 1471 1471 1472 1472 1473 1473 1474 1475 1475 1476 1477 1477 1478 1478 1479 1479 1480 1480 1480 1481 1483 1484 1485 1486 1487 1489 1490 1490 1491 1492 1493 1493 1494 1494 1495 1495 1495 1495 1495 1495 1496 1496 1496 1496 1496 1496 1496 1495 1495
1457 1457 1458 1459 1460 1460 1461 1462 1463 1463 1464 1464 1465 1465 1466 1466 1467 1468 1468 1469 1470 1470 1471 1471 1472 1472 1473 1474 1474 1475 1475 1476 1476 1477 1477 1478 1479 1479 1480 1481 1482 1484 1485 1486 1487 1488 1489 1490 1491 1491 1492 1493 1493 1493 1494 1494 1494 1494 1494 1495 1495 1495 1495 1495 1495 1494 1494 1494 1493
1456 1457 1457 1458 1459 1460 1460 1461 1462 1462 1463 1463 1464 1464 1465 1465 1466 1466 1467 1468 1468 1469 1469 1470 1470 1471 1471 1472 1473 1474 1474 1475 1475 1476 1476 1477 1478 1479 1480 1480 1482 1483 1485 1486 1487 1488 1489 1489 1490 1491 1491 1492 1492 1492 1493 1493 1493 1493 1493 1494 1494 1494 1493 1493 1493 1492 1492 1492 1491
1455 1456 1457 1457 1458 1459 1460 1460 1460 1461 1461 1462 1463 1463 1464 1464 1465 1465 1465 1466 1466 1467 1467 1468 1469 1470 1470 1471 1472 1472 1473 1474 1474 1475 1476 1476 1477 1478 1479 1480 1481 1483 1484 1485 1486 1487 1488 1489 1490 1490 1490 1490 1491 1491 1491 1492 1492 1492 1492 1492 1492 1492 1491 1491 1491 1491 1490 1490 1490
1455 1455 1456 1457 1457 1458 1459 1459 1460 1460 1460 1461 1461 1462 1462 1463 1463 1464 1464 1465 1465 1466 1466 1467 1467 1468 1469 1470 1470 1471 1472 1473 1473 1474 1475 1475 1476 1477 1479 1480 1481 1483 1484 1485 1486 1486 1487 1488 1489 1489 1489 1490 1490 1490 1490 1490 1491 1491 1490 1490 1490 1490 1490 1490 1489 1489 1489 1488 1488
1454 1455 1455 1456 1456 1457 1458 1458 1459 1459 1460 1460 1460 1461 1461 1462 1462 1463 1463 1464 1464 1465 1465 1465 1466 1467 1467 1468 1469 1470 1470 1471 1472 1473 1474 1475 1476 1477 1478 1480 1481 1482 1483 1484 1485 1486 1486 1487 1487 1488 1488 1488 1488 1488 1489 1489 1489 1489 1489 1489 1489 1488 1488 1488 1488 1487 1487 1486 1485
1454 1454 1455 1455 1456 1456 1457 1457 1458 1458 1459 1459 1460 1460 1460 1461 1461 1461 1462 1462 1463 1463 1464 1464 1465 1465 1466 1467 1468 1469 1470 1470 1471 1472 1473 1474 1475 1477 1478 1479 1480 1482 1483 1483 1484 1485 1485 1486 1486 1487 1487 1487 1487 1487 1487 1487 1487 1487 1487 1487 1487 1487 1487 1486 1486 1485 1485 1484 1484
1453 1454 1454 1455 1455 1455 1456 1456 1457 1457 1458 1458 1459 1459 1459 1460 1460 1460 1461 1461 1461 1462 1462 1463 1464 1465 1465 1466 1467 1468 1469 1470 1470 1471 1473 1474 1475 1476 1478 1479 1480 1481 1482 1483 1483 1484 1485 1485 1485 1485 1485 1485 1485 1485 1485 1485 1485 1485 1485 1485 1485 1485 1485 1485 1484 1484 1483 1482 1481
1452 1453 1453 1454 1454 1455 1455 1455 1456 1456 1457 1457 1458 1458 1458 1458 1459 1459 1460 1460 1460 1461 1462 1462 1463 1464 1465 1465 1466 1467 1468 1469 1470 1471 1472 1473 1475 1476 1477 1478 1480 1480 1481 1482 1482 1483 1484 1484 1484 1484 1484 1484 1484 1484 1484 1484 1483 1483 1483 1483 1483 1483 1483 1482 1482 1481 1480 1480 1479
1451 1452 1452 1453 1453 1454 1454 1455 1455 1455 1456 1456 1456 1457 1457 1457 1458 1458 1459 1459 1460 1460 1461 1461 1462 1463 1464 1465 1465 1466 1467 1468 1469 1470 1472 1473 1474 1476 1477 1478 1479 1480 1480 1481 1482 1482 1483 1483 1483 1483 1483 1483 1483 1483 1482 1482 1482 1481 1481 1481 1481 1480 1480 1480 1480 1479 1478 1478 1477
1451 1451 1451 1452 1452 1453 1453 1454 1454 1455 1455 1455 1455 1456 1456 1457 1457 1457 1458 1458 1459 1460 1460 1461 1461 1462 1463 1464 1465 1465 1466 1467 1469 1470 1471 1472 1474 1475 1476 1477 1478 1479 1480 1480 1481 1481 1482 1482 1482 1482 1482 1482 1482 1481 1481 1480 1480 1480 1479 1479 1479 1478 1478 1478 1477 1476 1476 1475 1475
1450 1450 1451 1451 1452 1452 1453 1453 1454 1454 1454 1455 1455 1455 1455 1456 1456 1457 1457 1458 1458 1459 1459 1460 1460 1461 1462 1463 1464 1465 1466 1467 1468 1469 1471 1472 1473 1474 1475 1476 1478 1478 1479 1480 1480 1480 1481 1481 1481 1481 1481 1480 1480 1480 1480 1479 1478 1478 1478 1477 1477 1476 1475 1475 1475 1474 1474 1473 1472